Time,TemperatureF,DewpointF,PressureIn,WindDirection,WindDirectionDegrees,WindSpeedMPH,WindSpeedGustMPH,Humidity,HourlyPrecipIn,Conditions,Clouds,dailyrainin,SoftwareType,DateUTC
2013-01-29 00:04:00,43.0,37.0,-100.00,WSW,258,5.0,-999.0,78,0.00,,,0.00,,2013-01-29 05:04:00,
2013-01-29 00:12:00,43.0,37.0,-100.00,WSW,258,5.0,-999.0,78,0.00,,,0.00,,2013-01-29 05:12:00,
2013-01-29 00:52:00,43.0,38.0,-100.00,WSW,257,5.0,-999.0,81,0.00,,,0.00,,2013-01-29 05:52:00,
2013-01-29 01:02:00,43.0,38.0,-100.00,WSW,257,5.0,-999.0,81,0.00,,,0.00,,2013-01-29 06:02:00,
2013-01-29 01:11:00,43.0,38.0,-100.00,WSW,257,5.0,-999.0,81,0.00,,,0.00,,2013-01-29 06:11:00,
2013-01-29 01:52:00,43.0,38.0,-100.00,West,276,4.0,-999.0,83,0.00,,,0.00,,2013-01-29 06:52:00,
2013-01-29 02:02:00,43.0,38.0,-100.00,West,276,4.0,-999.0,83,0.00,,,0.00,,2013-01-29 07:02:00,
2013-01-29 02:11:00,43.0,38.0,-100.00,West,276,4.0,-999.0,83,0.00,,,0.00,,2013-01-29 07:11:00,
2013-01-29 02:52:00,43.0,38.0,-100.00,West,263,5.0,-999.0,84,0.00,,,0.00,,2013-01-29 07:52:00,
2013-01-29 03:02:00,43.0,38.0,-100.00,West,263,5.0,-999.0,84,0.00,,,0.00,,2013-01-29 08:02:00,
2013-01-29 03:11:00,43.0,38.0,-100.00,West,263,5.0,-999.0,84,0.00,,,0.00,,2013-01-29 08:11:00,
2013-01-29 03:52:00,43.0,39.0,-100.00,West,262,5.0,-999.0,86,0.00,,,0.00,,2013-01-29 08:52:00,
2013-01-29 04:02:00,43.0,39.0,-100.00,West,262,5.0,-999.0,86,0.00,,,0.00,,2013-01-29 09:02:00,
2013-01-29 04:11:00,43.0,39.0,-100.00,West,262,5.0,-999.0,86,0.00,,,0.00,,2013-01-29 09:11:00,
2013-01-29 04:52:00,41.0,41.0,-100.00,West,267,6.0,-999.0,100,0.00,,,0.00,,2013-01-29 09:52:00,
2013-01-29 05:02:00,41.0,41.0,-100.00,West,267,6.0,-999.0,100,0.00,,,0.00,,2013-01-29 10:02:00,
2013-01-29 05:11:00,41.0,41.0,-100.00,West,267,6.0,-999.0,100,0.00,,,0.00,,2013-01-29 10:11:00,
2013-01-29 05:52:00,41.0,41.0,-100.00,West,275,5.0,-999.0,100,0.00,,,0.00,,2013-01-29 10:52:00,
2013-01-29 06:02:00,41.0,41.0,-100.00,West,275,5.0,-999.0,100,0.00,,,0.00,,2013-01-29 11:02:00,
2013-01-29 06:12:00,41.0,41.0,-100.00,West,275,5.0,-999.0,100,0.00,,,0.00,,2013-01-29 11:12:00,
2013-01-29 06:53:00,41.0,41.0,-100.00,West,261,4.0,-999.0,100,0.00,,,0.00,,2013-01-29 11:53:00,
2013-01-29 07:03:00,41.0,41.0,-100.00,West,261,4.0,-999.0,100,0.00,,,0.00,,2013-01-29 12:03:00,
2013-01-29 07:12:00,41.0,41.0,-100.00,West,261,4.0,-999.0,100,0.00,,,0.00,,2013-01-29 12:12:00,
2013-01-29 07:53:00,44.0,44.0,-100.00,WSW,244,4.0,-999.0,100,0.00,,,0.00,,2013-01-29 12:53:00,
2013-01-29 08:02:00,44.0,44.0,-100.00,WSW,244,4.0,-999.0,100,0.00,,,0.00,,2013-01-29 13:02:00,
2013-01-29 08:12:00,44.0,44.0,-100.00,WSW,244,4.0,-999.0,100,0.00,,,0.00,,2013-01-29 13:12:00,
2013-01-29 08:53:00,43.0,43.0,-100.00,West,271,4.0,-999.0,100,0.00,,,0.00,,2013-01-29 13:53:00,
2013-01-29 09:02:00,43.0,43.0,-100.00,West,271,4.0,-999.0,100,0.00,,,0.00,,2013-01-29 14:02:00,
2013-01-29 09:12:00,43.0,43.0,-100.00,West,271,4.0,-999.0,100,0.00,,,0.00,,2013-01-29 14:12:00,
2013-01-29 09:53:00,42.0,42.0,-100.00,ENE,72,2.0,-999.0,100,0.00,,,0.00,,2013-01-29 14:53:00,
2013-01-29 10:03:00,42.0,42.0,-100.00,ENE,72,2.0,-999.0,100,0.00,,,0.00,,2013-01-29 15:03:00,
2013-01-29 10:12:00,42.0,42.0,-100.00,ENE,72,2.0,-999.0,100,0.00,,,0.00,,2013-01-29 15:12:00,
2013-01-29 10:53:00,44.0,44.0,-100.00,NE,49,2.0,-999.0,100,0.00,,,-99.99,,2013-01-29 15:53:00,
2013-01-29 11:03:00,44.0,44.0,-100.00,NE,49,2.0,-999.0,100,0.00,,,-99.99,,2013-01-29 16:03:00,
2013-01-29 11:13:00,44.0,44.0,-100.00,NE,49,2.0,-999.0,100,0.00,,,-99.99,,2013-01-29 16:13:00,
2013-01-29 11:53:00,49.0,42.0,-100.00,WNW,295,3.0,-999.0,78,0.00,,,-99.99,,2013-01-29 16:53:00,
2013-01-29 12:03:00,49.0,42.0,-100.00,WNW,295,3.0,-999.0,78,0.00,,,-99.99,,2013-01-29 17:03:00,
2013-01-29 12:12:00,49.0,42.0,-100.00,WNW,295,3.0,-999.0,78,0.00,,,-99.99,,2013-01-29 17:12:00,
2013-01-29 13:04:00,51.0,43.0,-100.00,NE,38,2.0,-999.0,74,0.00,,,-99.99,,2013-01-29 18:04:00,
2013-01-29 13:13:00,51.0,43.0,-100.00,NE,38,2.0,-999.0,74,0.00,,,-99.99,,2013-01-29 18:13:00,
2013-01-29 13:52:00,51.0,44.0,-100.00,SSE,154,4.0,-999.0,76,0.00,,,-99.99,,2013-01-29 18:52:00,
2013-01-29 14:03:00,51.0,44.0,-100.00,SSE,154,4.0,-999.0,76,0.00,,,-99.99,,2013-01-29 19:03:00,
2013-01-29 14:12:00,51.0,44.0,-100.00,SSE,154,4.0,-999.0,76,0.00,,,-99.99,,2013-01-29 19:12:00,
2013-01-29 14:52:00,48.0,41.0,-100.00,SE,139,7.0,-999.0,78,0.00,,,-99.99,,2013-01-29 19:52:00,
2013-01-29 15:03:00,48.0,41.0,-100.00,SE,139,7.0,-999.0,78,0.00,,,-99.99,,2013-01-29 20:03:00,
2013-01-29 15:13:00,48.0,41.0,-100.00,SE,139,7.0,-999.0,78,0.00,,,-99.99,,2013-01-29 20:13:00,
2013-01-29 15:54:00,48.0,41.0,-100.00,South,174,6.0,-999.0,77,0.00,,,-99.99,,2013-01-29 20:54:00,
2013-01-29 16:03:00,48.0,41.0,-100.00,South,174,6.0,-999.0,77,0.00,,,-99.99,,2013-01-29 21:03:00,
2013-01-29 16:12:00,48.0,41.0,-100.00,South,174,6.0,-999.0,77,0.00,,,-99.99,,2013-01-29 21:12:00,
2013-01-29 16:53:00,45.0,40.0,-100.00,SSE,163,6.0,-999.0,82,0.00,,,-99.99,,2013-01-29 21:53:00,
2013-01-29 17:03:00,45.0,40.0,-100.00,SSE,163,6.0,-999.0,82,0.00,,,-99.99,,2013-01-29 22:03:00,
2013-01-29 17:12:00,45.0,40.0,-100.00,SSE,163,6.0,-999.0,82,0.00,,,-99.99,,2013-01-29 22:12:00,
2013-01-29 17:53:00,45.0,45.0,-100.00,SSE,158,7.0,-999.0,100,0.00,,,-99.99,,2013-01-29 22:53:00,
2013-01-29 18:02:00,45.0,45.0,-100.00,SSE,158,7.0,-999.0,100,0.00,,,-99.99,,2013-01-29 23:02:00,
2013-01-29 18:12:00,45.0,45.0,-100.00,SSE,158,7.0,-999.0,100,0.00,,,-99.99,,2013-01-29 23:12:00,
2013-01-29 18:53:00,43.0,43.0,-100.00,SE,142,3.0,-999.0,100,0.00,,,-99.99,,2013-01-29 23:53:00,
2013-01-29 19:03:00,43.0,43.0,-100.00,SE,142,3.0,-999.0,100,0.00,,,-99.99,,2013-01-30 00:03:00,
2013-01-29 19:12:00,43.0,43.0,-100.00,SE,142,3.0,-999.0,100,0.00,,,-99.99,,2013-01-30 00:12:00,
2013-01-29 19:53:00,43.0,43.0,-100.00,SSE,158,7.0,-999.0,100,0.00,,,0.00,,2013-01-30 00:53:00,
2013-01-29 20:02:00,43.0,43.0,-100.00,SSE,158,7.0,-999.0,100,0.00,,,0.00,,2013-01-30 01:02:00,
2013-01-29 20:12:00,43.0,43.0,-100.00,SSE,158,7.0,-999.0,100,0.00,,,0.00,,2013-01-30 01:12:00,
2013-01-29 20:52:00,43.0,43.0,-100.00,SSE,155,8.0,-999.0,100,0.00,,,0.00,,2013-01-30 01:52:00,
2013-01-29 21:02:00,43.0,43.0,-100.00,SSE,155,8.0,-999.0,100,0.00,,,0.00,,2013-01-30 02:02:00,
2013-01-29 21:12:00,43.0,43.0,-100.00,SSE,155,8.0,-999.0,100,0.00,,,0.00,,2013-01-30 02:12:00,
2013-01-29 21:53:00,45.0,45.0,-100.00,SSE,151,7.0,-999.0,100,0.00,,,0.00,,2013-01-30 02:53:00,
2013-01-29 22:03:00,45.0,45.0,-100.00,SSE,151,7.0,-999.0,100,0.00,,,0.00,,2013-01-30 03:03:00,
2013-01-29 22:12:00,45.0,45.0,-100.00,SSE,151,7.0,-999.0,100,0.00,,,0.00,,2013-01-30 03:12:00,
2013-01-29 22:52:00,46.0,46.0,-100.00,SSE,155,8.0,-999.0,100,0.00,,,0.00,,2013-01-30 03:52:00,
2013-01-29 23:02:00,46.0,46.0,-100.00,SSE,155,8.0,-999.0,100,0.00,,,0.00,,2013-01-30 04:02:00,
2013-01-29 23:12:00,46.0,46.0,-100.00,SSE,155,8.0,-999.0,100,0.00,,,0.00,,2013-01-30 04:12:00,
2013-01-29 23:52:00,46.0,46.0,-100.00,South,188,7.0,-999.0,100,0.00,,,0.00,,2013-01-30 04:52:00,